Location: Unspecified
(35.6961°N, 0.0000°E)
Time: 20:10:03
(UTC+00:00)

Transit 2A - All Passes

Search period start: 22 May 2019 00:00
Search period end: 01 June 2019 00:00
Orbit: 592 x 967 km, 66.7° (Epoch: 21 May)

Date Brightness Start Highest point End Pass type
(mag) Time Alt. Az. Time Alt. Az. Time Alt. Az.
22 May - 06:00:47 10° SE 06:04:44 18° ESE 06:08:46 10° ENE daylight
22 May - 07:41:11 10° SW 07:47:19 68° WNW 07:53:43 10° NNE daylight
22 May - 09:29:00 10° WNW 09:31:48 13° NW 09:34:36 10° NNW daylight
22 May - 16:32:07 10° NNW 16:37:54 58° ENE 16:43:04 10° SE daylight
22 May - 18:17:00 10° WNW 18:20:25 17° WSW 18:23:38 10° SW daylight
23 May - 05:29:03 10° ESE 05:30:55 11° E 05:32:48 10° E daylight
23 May - 07:07:02 10° SSW 07:13:12 86° ESE 07:19:38 10° NNE daylight
23 May - 08:53:11 10° W 08:57:17 18° NW 09:01:26 10° N daylight
23 May - 15:58:11 10° NNW 16:03:41 39° NE 16:08:38 10° SE daylight
23 May - 17:42:01 10° NW 17:46:35 25° WSW 17:50:47 10° SSW daylight
24 May - 06:33:07 10° S 06:39:08 61° ESE 06:45:26 10° NE daylight
24 May - 08:17:54 10° WSW 08:22:51 24° NW 08:27:54 10° N daylight
24 May - 15:24:22 10° N 15:29:22 28° NE 15:33:57 10° ESE daylight
24 May - 17:07:26 10° NW 17:12:42 38° WSW 17:17:27 10° S daylight
25 May - 05:59:26 10° S 06:05:09 42° ESE 06:11:05 10° NE daylight
25 May - 07:42:58 10° WSW 07:48:29 32° NW 07:54:11 10° N daylight
25 May - 14:50:44 10° N 14:54:59 20° NE 14:58:57 10° E daylight
25 May - 16:33:05 10° NW 16:38:44 59° WSW 16:43:47 10° S daylight
26 May - 05:26:03 10° SSE 05:31:12 29° ESE 05:36:33 10° NE daylight
26 May - 07:08:18 10° SW 07:14:13 45° WNW 07:20:20 10° NNE daylight
26 May - 14:17:22 10° N 14:20:31 15° NE 14:23:31 10° ENE daylight
26 May - 15:58:52 10° NNW 16:04:41 88° WSW 16:09:51 10° SSE daylight
27 May - 04:53:05 10° SSE 04:57:20 20° ESE 05:01:42 10° ENE daylight
27 May - 06:33:53 10° SW 06:40:01 63° WNW 06:46:23 10° NNE daylight
27 May - 08:22:10 10° WNW 08:24:33 12° NW 08:26:57 10° NNW daylight
27 May - 13:45:01 10° NNE 13:45:58 10° NE 13:46:55 10° NE daylight
27 May - 15:24:48 10° NNW 15:30:34 62° ENE 15:35:42 10° SE daylight
27 May - 17:10:02 10° WNW 17:12:59 15° WSW 17:15:47 10° SW daylight
28 May - 04:20:55 10° SE 04:23:31 13° E 04:26:09 10° ENE visible
28 May - 05:59:40 10° SSW 06:05:53 88° WNW 06:12:19 10° NNE daylight
28 May - 07:46:08 10° W 07:50:02 17° NW 07:53:57 10° N daylight
28 May - 14:50:51 10° NNW 14:56:21 42° NE 15:01:18 10° SE daylight
28 May - 16:34:53 10° NW 16:39:10 23° WSW 16:43:07 10° SSW daylight
29 May - 05:25:42 10° SSW 05:31:48 66° ESE 05:38:09 10° NNE daylight
29 May - 07:10:47 10° W 07:15:36 22° NW 07:20:29 10° N daylight
29 May - 14:17:01 10° N 14:22:03 30° NE 14:26:40 10° ESE daylight
29 May - 16:00:13 10° NW 16:05:17 35° WSW 16:09:52 10° S daylight
30 May - 04:51:58 10° S 04:57:47 46° ESE 05:03:50 10° NE daylight
30 May - 06:35:46 10° WSW 06:41:13 30° NW 06:46:47 10° N daylight
30 May - 13:43:20 10° N 13:47:41 21° NE 13:51:44 10° E daylight
30 May - 15:25:48 10° NW 15:31:20 53° WSW 15:36:16 10° S daylight
31 May - 04:18:30 10° SSE 04:23:50 31° ESE 04:29:21 10° NE visible
31 May - 06:01:03 10° SW 06:06:56 42° WNW 06:12:58 10° NNE daylight
31 May - 13:09:54 10° N 13:13:14 15° NE 13:16:24 10° E daylight
31 May - 14:51:34 10° NNW 14:57:19 81° WSW 15:02:24 10° SSE daylight
